Location: Newark
(49.8348°N, 24.0280°E)
Time: 00:52:54
(UTC+00:00)

Explorer 7 - Pass Details

Date: 26 January 2020
Orbit: 485 x 679 km, 50.3° (Epoch: 20 February)

Event Time Altitude Azimuth Distance (km) Brightness Sun altitude
Rises 01:59:27 0° 285° (WNW) 2,565 - -39.3°
Reaches altitude 10° 02:01:40 10° 278° (W) 1,695 - -38.9°
Maximum altitude 02:05:16 41° 207° (SSW) 746 - -38.4°
Drops below altitude 10° 02:09:02 10° 137° (SE) 1,762 - -37.8°
Sets 02:11:22 0° 130° (SE) 2,681 - -37.4°
Exits shadow 02:11:25 - 130° (SE) 2,701 10.7 -37.4°
